Location: Oshawa
(43.9000°N, 78.8670°W)
Time: 11:10:38
(UTC-05:00)

Explorer 7 - Visible Passes

Search period start: 12 February 2016 00:00
Search period end: 22 February 2016 00:00
Orbit: 487 x 689 km, 50.3° (Epoch: 12 February)

Date Brightness Start Highest point End Pass type
(mag) Time Alt. Az. Time Alt. Az. Time Alt. Az.
12 Feb 8.0 18:30:22 10° WNW 18:34:38 39° N 18:38:33 13° ENE visible
12 Feb 8.3 20:11:35 10° WNW 20:15:00 38° NNW 20:15:00 38° NNW visible
13 Feb 8.1 18:37:23 10° WNW 18:41:36 37° N 18:45:08 15° ENE visible
13 Feb 8.3 20:18:22 10° WNW 20:21:34 38° NNW 20:21:34 38° NNW visible
14 Feb 8.0 18:44:20 10° WNW 18:48:35 37° N 18:51:43 17° ENE visible
14 Feb 8.4 20:25:08 10° WNW 20:28:09 39° NW 20:28:09 39° NW visible
15 Feb 7.8 18:51:12 10° WNW 18:55:32 41° N 18:58:20 21° ENE visible
15 Feb 8.5 20:31:53 10° WNW 20:34:47 38° WNW 20:34:47 38° WNW visible
16 Feb 7.6 18:58:00 10° WNW 19:02:26 48° NNE 19:05:01 24° E visible
16 Feb 8.7 20:38:41 10° WNW 20:41:27 34° W 20:41:27 34° W visible
17 Feb 7.3 19:04:45 10° WNW 19:09:18 60° NNE 19:11:44 27° E visible
17 Feb 9.0 20:45:33 10° WNW 20:48:12 29° W 20:48:12 29° W visible
18 Feb 7.1 19:11:28 10° WNW 19:16:05 80° NNE 19:18:33 29° ESE visible
18 Feb 9.3 20:52:34 10° W 20:55:01 22° WSW 20:55:01 22° WSW visible
19 Feb 7.3 19:18:12 10° WNW 19:22:48 73° SSW 19:25:29 26° SE visible
19 Feb 9.7 20:59:59 10° W 21:01:58 16° WSW 21:01:58 16° WSW visible
20 Feb 7.9 19:25:00 10° WNW 19:29:27 49° SW 19:32:33 20° SSE visible
21 Feb 8.7 19:31:55 10° WNW 19:36:01 32° SW 19:39:47 12° SSE visible
